sat.trackr.live / text

‹ back to catalog

STARLINK-4758

NORAD 53820 · 2022-114C

PAYLOAD ACTIVE UNKNOWN

§ Identity

Operator
Country
US
Launch date
2022-09-19
Launch site
AFETR
Launch vehicle
Mass (kg)
RCS (m²)

Purposes: comms

External: N2YO · Heavens-Above · Gunter

§ Orbital elements

Epoch: 2026-09-20T22:21:52.964064Z

Period
93.79 min
Inclination
53.1590°
Eccentricity
0.0002767
Mean motion
15.35406143 rev/d
Perigee alt
457.8 km
Apogee alt
461.6 km
Semi-major
6,837.9 km
B*
-1.2389e-6
RAAN
138.0493°
Arg perigee
121.7275°
Mean anomaly
238.3998°
Rev number
22,243

§ Raw data

STARLINK-47581 53820U 22114C   26263.93186301 -.00000425  00000+0 -12389-5 0  99982 53820  53.1590 138.0493 0002767 121.7275 238.3998 15.35406143222435

JSON: /api/v1/satellites/53820 · /tle

For live sub-satellite position, see the globe view (requires WebGL).

§ Visibility from observer

Set your observer location to see the next 7 days of passes ≥ 10°. The values pass through the URL so the page stays shareable.

No JS? Fill the form by hand. The geolocation button needs JavaScript.